Regional Weather Roundup
Issued by NWS

Home | Current Version | Previous Version | Graphics & Text | Print | Product List | Glossary On
Versions: 1 2 3 4 5 6 7 8 9 10 11 12 13 14 15 16 17 18 19 20 21 22 23 24 25
000
ASUS45 KTFX 200210
RWRMT
MONTANA REGIONAL WEATHER ROUNDUP
NATIONAL WEATHER SERVICE GREAT FALLS MT
800 PM MDT TUE SEP 19 2017

NOTE: "FAIR" INDICATES FEW OR NO CLOUDS BELOW 12000 FEET WITH NO
SIGNIFICANT WEATHER AND/OR OBSTRUCTIONS TO VISIBILITY.

MTZ001>007-043-200300-
WEST OF THE DIVIDE

CITY           SKY/WX    TMP DP  RH WIND       PRES   REMARKS
KALISPELL      CLOUDY    46  40  79 SE8       29.68S
MISSOULA       CLOUDY    45  37  73 S7        29.78R
BUTTE          CLOUDY    35  34  96 CALM      29.78F
MULLAN PASS    FOG       31  29  92 VRB3      29.71S VSB 3/4
ANACONDA         N/A     37  30  75 SE6       29.77S
DEER LODGE       N/A     39  30  70 SE6       29.76S
EUREKA           N/A     46  39  76 CALM      29.66R
HAMILTON         N/A     41  36  81 SE14        N/A
LIBBY            N/A     46  41  81 CALM      29.68R
PLAINS           N/A     48  36  63 CALM      29.76
$$

MTZ008-052>055-200300-
SOUTHWEST MONTANA

CITY           SKY/WX    TMP DP  RH WIND       PRES   REMARKS
BOZEMAN        LGT RAIN  41  37  86 W7G21     29.79R
DILLON         CLOUDY    37  32  82 E6        29.79F
W YELLOWSTONE  CLOUDY    34  32  93 S9        29.84S WCI  26
ENNIS          CLOUDY    39  34  81 SW6       29.86R
THREE FORKS      N/A     43  34  70 SW8       29.79R
TWIN BRIDGES     N/A     41  32  70 CALM      29.82
$$

MTZ009-010-012-014-046-048-049-054-200300-
EAST SLOPES AND CENTRAL MONTANA

CITY           SKY/WX    TMP DP  RH WIND       PRES   REMARKS
CUT BANK       CLOUDY    43  33  68 SW16G28   29.61S
GREAT FALLS    CLOUDY    46  32  58 SW16      29.64F
MALMSTROM AFB  CLOUDY    47  33  59 SW15      29.65S
HELENA         CLOUDY    50  33  52 W14       29.71R
BOWMANS CRNR   MOCLDY    42  30  62 SW13      29.67R
CHOTEAU          N/A     46  28  49 SW6       29.65S
FAIRFIELD        N/A     47  29  49 SW15G21   29.63S
POWER            N/A     44  33  64 SW12      29.63S
RAYNESFORD     MOCLDY    47  29  49 SW21G26   29.67S
ULM            MOCLDY    46  33  60 SW12      29.68R
$$

MTZ011-013-016-021-045-047-050-051-200300-
NORTH CENTRAL MONTANA

CITY           SKY/WX    TMP DP  RH WIND       PRES   REMARKS
HAVRE          CLOUDY    48  33  56 SW10      29.57S
LEWISTOWN      CLOUDY    48  31  51 W16G29    29.68R
N BAR RANCH      N/A     43  30  61 W7        29.70R
CHINOOK          N/A     54  32  43 S5        29.57R
DENTON           N/A     49  32  52 W16       29.62R
GEYSER         MOCLDY    46  31  55 SW13      29.66R
GRASS RANGE    MOCLDY    48  33  55 S8        29.62S
JUDITH GAP     MOCLDY    42  32  68 W12       29.69R
WINIFRED       MOCLDY    48  30  50 NW6       29.63R
$$

MTZ017>020-022>027-061-062-200300-
NORTHEAST MONTANA

CITY           SKY/WX    TMP DP  RH WIND       PRES   REMARKS
GLASGOW        PTCLDY    51  35  54 W7        29.58R
JORDAN           N/A     50  35  56 W9        29.62R
SIDNEY         CLOUDY    54  38  54 W9        29.60R
WOLF POINT     MOCLDY    53  40  61 SW8       29.59R
MALTA          CLEAR     46  34  61 CALM      29.58S
PLENTYWOOD       N/A     54  41  62 W12       29.55R
POPLAR           N/A     54  41  62 SW3       29.60R
SCOBEY           N/A     50  37  60 CALM      29.58
$$

MTZ028>42-056>058-200300-
SOUTHCENTRAL AND SOUTHEAST MONTANA

CITY           SKY/WX    TMP DP  RH WIND       PRES   REMARKS
BAKER          PTCLDY    46  40  79 W10       29.68R
BILLINGS       CLOUDY    51  33  50 W20G30    29.72R
LIVINGSTON     CLOUDY    44  34  67 SW18G24   29.74F
MILES CITY     CLEAR     49  38  65 SW8       29.68R
BIG TIMBER     CLEAR     43  32  65 W10       29.76R
EKALAKA          N/A     45  37  73 SW5       29.72
HARLOWTON      MOCLDY    41  34  75 MISG      29.71R
LAUREL           N/A     46  41  81 S10       29.73S
ROUNDUP          N/A     51  33  50 SW7       29.63R
$$

REGIONAL REPORTS...DAKOTAS

CITY           SKY/WX    TMP DP  RH WIND       PRES   REMARKS
WILLISTON      LGT RAIN  55  43  63 W12       29.57R
MINOT          CLOUDY    58  53  84 W12       29.48S
DICKINSON      CLOUDY    49  47  93 W12       29.61R
BEACH          CLOUDY    48  45  87 W9        29.68R
CROSBY         CLOUDY    52  50  93 W9        29.54R FOG
TIOGA          CLOUDY    52  46  82 W18G24    29.56R
WATFORD CITY     N/A     50  45  81 SW5       29.59R
BISMARCK       LGT RAIN  58  34  40 W13G24    29.55R
GRAND FORKS    TSTM      67  65  93 E33G39    29.41F
FARGO          CLOUDY    66  64  93 N7        29.41F
BUFFALO SD       N/A     48  44  86 W14       29.64R
RAPID CITY     PTCLDY    48  43  81 N16G25    29.73R
$$

REGIONAL REPORTS...WYOMING/IDAHO/WASHINGTON

CITY           SKY/WX    TMP DP  RH WIND       PRES   REMARKS
GILLETTE       CLEAR     41  38  89 SW3       29.77R
SHERIDAN       PTCLDY    42  38  85 S7        29.74R
BUFFALO WY     CLOUDY    43  37  79 S5        29.78S
CODY           CLOUDY    42  32  67 CALM      29.81F
YELLOWSTONE LA   N/A     29  29 100 VRB3      29.87S
IDAHO FALLS    CLEAR     47  31  53 S22       29.87R
SALMON         CLOUDY    43  36  76 N8        29.82R
BOISE          CLOUDY    54  38  54 NE3       29.88R
SPOKANE        MOCLDY    45  44  97 SE7       29.71F
$$

REGIONAL REPORTS...ALBERTA

CITY           SKY/WX    TMP DP  RH WIND       PRES   REMARKS
EDMONTON       CLOUDY    41  36  81 W13G21    29.41F
CALGARY        PTCLDY    50  19  29 W15       29.48S
LETHBRIDGE     MOCLDY    48  30  49 SW15G21   29.52S
MEDICINE HAT   MOCLDY    50  30  46 S5        29.51S
$$

REGIONAL REPORTS...SASKATCHEWAN

CITY           SKY/WX    TMP DP  RH WIND       PRES   REMARKS
SWIFT CURRENT  CLEAR     45  30  57 W7        29.51R
REGINA         MOCLDY    52  43  71 W14G20    29.51R
SASKATOON      MOCLDY    46  43  87 W15G21    29.44S
$$




USA.gov is the U.S. government's official web portal to all federal, state and local government web resources and services.